Regional Weather Roundup
Issued by NWS Little Rock, AR

Home | Current Version | Previous Version | Graphics & Text | Print | Product List | Glossary On
Versions: 1 2 3 4 5 6 7 8 9 10 11 12 13 14 15 16 17 18 19 20 21 22 23 24 25 26 27 28 29 30 31 32 33 34 35 36 37 38 39 40 41 42 43 44 45 46 47 48 49 50
000
ASUS44 KLZK 230805
RWRLZK

WEATHER ROUNDUP FOR ARKANSAS
NATIONAL WEATHER SERVICE LITTLE ROCK AR
300 AM CDT MON OCT 23 2017

NOTE: "FAIR" INDICATES FEW OR NO CLOUDS BELOW 12,000 FEET WITH NO
SIGNIFICANT WEATHER AND/OR OBSTRUCTIONS TO VISIBILITY.

ARZ001-003-010-029-230900-
NORTHWEST ARKANSAS

CITY           SKY/WX    TMP DP  RH WIND       PRES   REMARKS
FAYETTEVILLE   FOG       39  39 100 S3        30.09F VSB 1/4
FORT SMITH     PTCLDY    46  45  96 CALM      30.09F
HARRISON       CLOUDY    49  45  86 W7        30.06S
ROGERS         CLEAR     43  41  93 W6        30.09S
SILOAM SPGS    CLEAR     39  38  96 E3        30.09F
HIGHFILL       CLEAR     41  40  96 W7        30.09S
$$

ARZ004-005-016-230900-
NORTH CENTRAL ARKANSAS

CITY           SKY/WX    TMP DP  RH WIND       PRES   REMARKS
BATESVILLE     MOCLDY    50  49  96 NW5       30.01F
FLIPPIN        LGT RAIN  51  49  92 N5        30.04F
MTN HOME       CLOUDY    50  50 100 VRB3      30.02F
$$

ARZ040-041-230900-
WEST CENTRAL ARKANSAS

CITY           SKY/WX    TMP DP  RH WIND       PRES   REMARKS
MENA           CLEAR     50  48  93 SW6       30.09F
MOUNT IDA      CLEAR     42  40  92 CALM      30.06
$$

ARZ009-017-025-026-028-230900-
NORTHEAST ARKANSAS

CITY           SKY/WX    TMP DP  RH WIND       PRES   REMARKS
CORNING        CLOUDY    54  54 100 NW10G17   29.96F
JONESBORO      CLOUDY    54  52  93 NW12      29.97F
NEWPORT        CLOUDY    52  50  93 NW12      30.00F
WALNUT RIDGE   CLOUDY    53  50  89 NW12      29.98F
BLYTHEVILLE    CLOUDY    54  54 100 NW10G20   29.95F
$$

ARZ022-023-033-042-044-230900-
CENTRAL ARKANSAS

CITY           SKY/WX    TMP DP  RH WIND       PRES   REMARKS
LITTLE ROCK    CLEAR     50  46  86 NW7       30.04F
N LITTLE ROCK    N/A     49  45  87 CALM      30.05F
JACKSONVILLE   CLEAR     51  47  85 W3        30.03F
SEARCY         CLOUDY    53  51  93 CALM      30.02F
HOT SPRINGS    CLEAR     47  46  97 CALM      30.07S
RUSSELLVILLE   PTCLDY    43  43 100 CALM      30.05F
CLINTON        CLOUDY    48  46  93 CALM      30.03F
$$

ARZ036-230900-
EAST ARKANSAS

CITY           SKY/WX    TMP DP  RH WIND       PRES   REMARKS
WEST MEMPHIS   CLOUDY    54  54 100 VRB7      29.96S
$$

ARZ050-053-066-070-073-230900-
SOUTHWEST ARKANSAS

CITY           SKY/WX    TMP DP  RH WIND       PRES   REMARKS
ARKADELPHIA    FAIR      44  43  96 CALM      30.09S
CAMDEN         CLEAR     46  43  87 CALM      30.08S FOG
TEXARKANA      CLEAR     47  47 100 SW3       30.11R
EL DORADO      CLEAR     49  48  97 NW3       30.08S
DE QUEEN       FOG       41  41 100 CALM      30.09S VSB 1/4
$$

ARZ056-057-069-230900-
SOUTHEAST ARKANSAS

CITY           SKY/WX    TMP DP  RH WIND       PRES   REMARKS
PINE BLUFF     PTCLDY    52  47  83 W5        30.04F
STUTTGART      CLOUDY    54  50  86 NW8       30.02F
MONTICELLO     CLEAR     53  50  89 W6        30.03F

$$





USA.gov is the U.S. government's official web portal to all federal, state and local government web resources and services.